Wind_Speed
17 17 18 20 20 20 19 19 19 21 22 23 24 24 24 24 25 25 26 26 26 27 27 27 27 27 27 27 28 28 28 29 29 29 28 27 27 27 28 28 28 28 28
16 16 17 18 20 22 22 20 20 21 22 23 24 25 25 26 26 27 27 27 27 28 28 29 29 29 29 30 29 28 29 29 29 30 29 28 28 29 29 29 29 28 27
16 16 17 18 20 20 20 20 21 22 22 23 24 25 26 26 27 28 28 28 28 29 29 29 30 31 31 31 31 30 29 30 30 31 31 31 30 30 30 30 30 30 29
16 16 16 18 20 20 20 21 22 22 23 23 24 25 26 27 28 29 29 29 29 29 29 29 30 31 31 31 30 30 31 31 31 31 32 32 31 31 31 31 30 30 30
16 16 17 18 19 19 20 21 22 23 24 25 26 26 27 27 28 28 29 30 29 29 29 29 30 30 30 30 30 30 30 31 31 31 32 32 32 32 32 32 32 32 31
15 16 17 18 20 21 21 22 22 24 25 26 26 27 28 28 28 29 29 29 29 29 29 29 28 29 29 28 28 29 29 29 30 30 30 31 31 31 32 31 31 32 32
15 17 18 19 20 21 22 22 23 24 25 26 27 27 28 28 28 28 29 29 29 29 28 28 28 28 28 27 27 27 28 27 28 28 28 29 30 30 30 30 30 30 30
15 16 18 19 20 21 22 23 24 24 25 26 27 27 27 27 28 28 28 28 28 28 28 28 28 29 28 27 27 27 26 26 27 27 27 28 28 29 29 29 29 29 29
16 16 17 19 20 22 23 23 24 25 26 26 27 28 28 28 28 28 28 28 28 28 27 27 26 26 26 26 26 26 26 26 26 26 26 27 27 28 28 29 29 29 29
16 17 18 19 21 23 24 25 25 26 27 28 28 28 28 28 28 28 28 27 27 27 27 26 25 25 25 25 25 26 25 25 25 26 26 27 27 28 28 28 29 29 28
18 20 20 21 22 23 24 26 26 27 28 29 29 28 28 28 27 27 27 27 27 27 26 26 25 25 25 25 25 24 24 24 24 24 25 26 26 27 27 28 28 28 28
21 20 21 22 22 23 25 26 27 28 28 28 28 28 28 28 28 27 27 27 27 27 26 26 26 25 25 25 24 24 24 24 23 23 24 25 25 26 26 26 26 26 26
22 22 22 22 22 24 25 26 26 27 27 27 27 27 27 27 27 27 27 27 27 27 26 25 25 24 24 24 25 24 24 23 23 23 23 23 24 24 25 25 25 24 24
23 23 24 24 24 25 26 26 26 26 26 25 25 26 25 25 25 25 25 25 25 24 24 24 23 24 24 23 23 23 22 22 22 22 22 22 22 22 22 22 22 22 22
22 23 24 25 24 24 24 25 25 25 24 24 23 23 23 23 23 23 23 22 21 21 21 21 21 22 21 21 21 21 21 21 20 20 20 20 19 19 18 19 19 20 20
23 24 24 23 23 23 23 24 24 23 22 22 21 20 20 20 20 20 20 19 19 19 19 20 20 19 19 20 20 20 20 19 18 18 18 18 18 17 17 18 17 17 17
24 24 23 23 23 22 22 22 21 21 20 19 18 18 18 18 18 18 18 18 19 19 19 18 18 18 17 17 17 16 16 16 16 16 16 16 15 16 15 15 15 15 15
23 22 22 21 20 19 19 19 18 18 17 16 16 17 17 16 17 16 17 17 17 16 15 15 15 14 14 13 12 12 13 13 13 13 12 12 12 12 11 12 13 12 12
20 19 19 18 17 15 15 15 15 15 15 15 14 15 15 15 15 15 16 15 14 13 13 12 11 11 10 10 10 11 11 10 10 10 9 9 9 8 9 10 10 10 9
17 16 16 15 13 13 13 13 13 13 12 12 13 13 13 14 14 14 13 13 13 12 11 10 9 8 8 8 8 8 7 6 6 6 6 6 6 6 6 7 6 6 6
15 15 14 13 12 11 11 12 12 12 11 11 11 12 12 12 13 12 11 11 10 9 8 7 7 6 6 6 5 4 3 2 2 2 2 2 2 2 2 2 3 3 3
14 14 13 12 11 10 9 10 10 10 10 10 10 10 10 10 10 9 9 8 7 6 6 5 5 5 5 5 5 5 4 4 3 2 2 2 2 3 2 2 1 1 0
13 12 12 10 9 9 9 10 9 9 9 9 9 9 8 8 8 7 6 6 6 6 6 6 6 6 7 7 7 7 7 8 7 7 6 6 6 6 5 5 4 4 4
11 10 10 9 9 9 9 9 8 7 8 8 8 8 7 7 7 7 7 7 7 7 7 7 8 8 8 8 9 9 9 9 9 10 10 9 8 8 7 7 7 7 6
9 9 8 8 9 9 9 9 9 9 8 8 8 8 8 8 8 8 9 8 9 9 8 9 9 10 10 11 11 11 11 11 11 11 11 10 10 10 9 8 8 8 7
9 9 8 9 9 9 9 10 9 9 10 9 9 9 10 10 11 11 11 11 11 10 10 10 10 11 11 11 11 11 11 11 11 11 12 12 11 10 10 9 9 8 8
Wind_Direction
269 271 278 281 285 281 278 279 282 285 284 284 285 285 285 286 287 286 286 286 285 284 282 280 279 278 277 274 274 273 269 266 263 263 263 262 264 264 264 262 262 261 261
270 269 275 278 283 282 281 281 283 284 284 285 286 287 287 287 288 288 287 286 284 283 282 281 280 278 277 275 273 271 268 267 266 264 262 262 262 263 262 263 263 263 263
272 273 275 279 283 286 281 283 284 284 285 284 285 286 286 287 287 287 286 285 283 282 281 279 278 277 276 275 273 271 269 269 267 265 264 262 263 264 263 263 262 262 263
276 278 279 281 285 286 287 285 285 286 286 285 285 286 287 288 288 287 286 285 284 282 281 281 280 279 277 276 274 272 271 271 269 267 265 264 263 264 263 263 262 262 262
279 282 283 283 285 286 288 289 286 286 286 286 286 286 287 289 289 289 287 286 285 284 282 283 282 280 278 276 275 274 273 272 272 270 268 266 265 264 263 263 263 262 261
285 286 286 286 287 288 289 290 290 291 290 289 287 287 288 289 290 289 288 287 286 285 285 284 284 282 280 279 277 274 274 273 272 271 270 267 266 264 263 264 263 262 262
285 288 288 286 287 289 291 293 293 293 293 292 290 290 290 290 290 289 289 288 286 286 286 285 284 283 282 280 279 276 275 274 274 272 270 267 266 265 263 263 262 262 262
284 287 289 287 289 291 293 294 294 294 294 294 293 293 293 293 292 291 290 289 288 287 287 286 285 283 281 281 280 278 276 274 275 272 270 268 266 265 264 263 263 263 263
286 289 291 292 294 294 294 294 294 294 294 294 293 294 294 293 292 292 292 290 289 287 287 288 287 286 283 282 280 278 276 274 274 272 270 268 267 266 265 263 262 263 263
289 290 291 292 293 293 293 294 294 294 294 294 294 294 294 292 291 290 290 290 289 287 288 287 286 285 284 283 282 281 279 276 273 271 269 266 265 266 265 265 264 264 264
298 295 293 292 293 293 293 294 294 294 294 294 293 293 294 292 291 290 290 289 289 288 287 286 285 285 284 283 281 280 280 278 277 274 271 268 266 265 265 266 266 264 263
304 298 294 294 293 292 293 294 294 293 294 294 293 293 293 292 291 290 290 289 288 287 287 286 286 284 282 281 280 280 278 277 276 274 272 270 268 266 265 265 264 264 263
303 299 296 296 295 294 293 294 294 294 294 294 293 292 292 291 290 289 289 288 287 286 286 285 285 283 283 282 280 280 278 276 274 273 272 270 269 267 265 262 262 264 264
305 303 303 302 300 299 296 295 293 294 294 294 293 292 292 291 291 290 291 290 288 287 287 286 284 282 282 282 281 280 278 277 275 273 271 269 269 267 264 263 263 263 264
306 307 306 306 303 300 298 295 295 295 294 294 294 295 296 296 296 295 295 294 293 291 289 288 286 283 282 281 281 281 279 278 275 272 270 269 269 268 265 264 262 263 263
310 310 308 306 303 300 298 297 297 297 295 295 296 297 298 298 299 300 299 298 297 295 293 291 290 287 285 283 283 282 280 278 275 272 270 270 269 266 264 263 263 264 264
312 313 312 307 302 300 299 298 297 296 296 297 297 299 301 301 302 303 303 302 300 298 295 294 292 292 291 289 286 285 283 280 274 273 271 269 266 263 262 261 261 262 263
314 315 315 313 308 306 303 301 300 297 296 297 297 299 302 304 305 305 305 304 304 303 300 298 298 296 295 293 290 291 289 284 277 272 270 265 262 257 257 260 262 264 263
318 319 319 318 314 311 310 308 305 302 300 299 299 300 302 305 307 308 311 311 312 310 307 306 302 300 299 296 292 292 288 285 277 270 265 259 259 259 261 262 260 260 261
321 321 323 323 324 322 321 317 315 312 309 306 304 303 305 308 309 311 312 312 314 314 313 312 311 308 308 306 303 302 295 289 282 274 269 261 261 263 261 261 262 264 262
326 325 326 326 324 323 326 325 322 318 316 314 312 311 312 314 316 317 316 317 321 324 325 324 324 322 324 326 328 336 332 318 301 286 274 258 255 269 271 266 257 248 252
332 332 332 331 329 329 333 335 333 330 327 325 324 325 327 329 330 330 329 332 339 345 349 352 353 354 2 11 22 33 47 55 58 66 74 81 69 64 70 79 82 72 41
334 334 339 343 342 341 340 341 339 339 341 342 343 345 347 349 354 358 2 5 11 19 25 32 35 37 47 53 59 66 72 68 70 71 74 73 74 75 78 78 76 75 77
338 343 348 351 352 352 350 349 351 353 357 360 3 9 13 15 22 31 35 38 42 45 49 55 57 61 65 70 74 77 78 74 75 74 75 79 81 84 82 78 75 73 71
357 2 5 5 9 13 15 17 19 20 20 23 28 30 33 39 46 51 55 57 57 58 64 69 71 71 73 77 77 76 77 77 76 73 76 80 84 84 82 77 73 69 64
21 23 25 27 28 29 31 34 36 38 40 43 46 49 52 56 61 65 67 68 67 67 70 72 76 77 77 78 78 76 75 75 74 73 78 80 79 77 74 71 66 61 60
Height
5856 5856 5856 5855 5853 5852 5853 5853 5852 5851 5851 5849 5848 5848 5846 5845 5844 5842 5840 5839 5837 5836 5835 5834 5833 5832 5832 5831 5831 5830 5830 5830 5830 5830 5830 5830 5830 5830 5830 5831 5832 5832 5833
5853 5853 5852 5852 5850 5849 5847 5847 5847 5846 5846 5844 5843 5842 5841 5839 5838 5836 5834 5833 5831 5830 5829 5827 5826 5825 5825 5824 5823 5822 5822 5822 5822 5822 5822 5823 5824 5823 5823 5824 5824 5825 5825
5850 5849 5849 5848 5846 5844 5842 5842 5842 5841 5840 5838 5837 5836 5835 5833 5831 5830 5828 5826 5824 5822 5821 5820 5818 5817 5816 5815 5815 5814 5813 5814 5813 5814 5814 5815 5816 5816 5816 5816 5817 5817 5818
5846 5845 5845 5844 5842 5840 5839 5838 5836 5835 5834 5832 5831 5830 5828 5827 5825 5823 5821 5818 5816 5815 5813 5811 5810 5809 5808 5807 5806 5805 5805 5805 5805 5804 5805 5806 5807 5808 5808 5809 5809 5810 5810
5841 5841 5840 5839 5837 5835 5834 5832 5831 5830 5828 5826 5825 5823 5821 5820 5817 5815 5813 5811 5809 5807 5805 5803 5802 5800 5799 5798 5797 5797 5796 5796 5796 5796 5796 5797 5798 5799 5800 5800 5801 5802 5803
5837 5836 5835 5834 5832 5831 5829 5827 5825 5824 5822 5820 5817 5816 5814 5812 5810 5807 5805 5803 5801 5799 5797 5795 5794 5792 5791 5790 5789 5788 5788 5788 5788 5788 5788 5788 5789 5790 5791 5792 5792 5793 5794
5832 5831 5830 5829 5827 5825 5823 5821 5819 5817 5815 5813 5811 5809 5807 5804 5802 5800 5798 5796 5793 5791 5789 5787 5786 5785 5783 5782 5781 5781 5780 5779 5779 5779 5779 5780 5780 5781 5782 5783 5784 5785 5786
5828 5827 5825 5824 5822 5820 5817 5815 5813 5811 5808 5806 5804 5802 5799 5797 5794 5792 5790 5788 5786 5784 5782 5780 5778 5777 5775 5774 5774 5773 5772 5772 5772 5771 5771 5772 5772 5773 5773 5775 5776 5777 5777
5822 5821 5819 5818 5816 5814 5811 5809 5807 5804 5802 5800 5797 5794 5792 5789 5786 5784 5782 5780 5778 5776 5774 5773 5771 5769 5768 5767 5766 5765 5764 5764 5764 5764 5764 5764 5764 5765 5765 5766 5768 5769 5770
5816 5815 5813 5812 5809 5807 5805 5802 5800 5797 5795 5792 5789 5787 5784 5781 5779 5777 5774 5773 5771 5769 5767 5765 5764 5762 5761 5760 5759 5758 5756 5756 5756 5756 5755 5756 5756 5757 5757 5758 5759 5760 5762
5811 5809 5807 5805 5803 5800 5798 5795 5792 5789 5787 5784 5781 5779 5776 5773 5771 5769 5767 5765 5763 5762 5760 5758 5756 5755 5754 5752 5751 5750 5749 5749 5748 5748 5748 5748 5749 5749 5750 5750 5751 5752 5753
5805 5802 5800 5798 5796 5793 5790 5788 5784 5781 5779 5776 5773 5771 5768 5766 5764 5761 5760 5758 5756 5754 5752 5750 5749 5748 5746 5745 5744 5743 5742 5741 5741 5741 5741 5741 5741 5741 5742 5742 5743 5744 5744
5799 5796 5793 5791 5788 5786 5783 5779 5776 5773 5771 5768 5765 5763 5760 5758 5756 5754 5752 5750 5748 5746 5745 5743 5741 5740 5739 5738 5737 5736 5735 5734 5734 5733 5733 5733 5733 5734 5734 5735 5735 5736 5737
5793 5790 5787 5784 5781 5778 5775 5771 5769 5766 5763 5761 5758 5756 5753 5751 5749 5747 5745 5743 5741 5739 5737 5736 5734 5733 5732 5731 5730 5729 5728 5727 5727 5726 5726 5726 5727 5727 5727 5728 5728 5729 5730
5787 5784 5780 5777 5773 5770 5767 5764 5761 5759 5756 5754 5751 5749 5747 5744 5742 5740 5738 5736 5734 5732 5731 5729 5728 5726 5725 5724 5723 5722 5722 5721 5720 5720 5720 5720 5720 5721 5721 5722 5722 5723 5723
5781 5777 5773 5770 5766 5763 5760 5758 5755 5752 5749 5747 5745 5743 5741 5739 5736 5734 5732 5730 5729 5727 5725 5723 5722 5720 5719 5718 5717 5716 5715 5715 5714 5714 5714 5714 5715 5715 5716 5716 5716 5717 5717
5775 5771 5767 5763 5760 5757 5754 5751 5748 5746 5744 5742 5740 5738 5736 5734 5732 5730 5728 5726 5724 5722 5720 5718 5717 5715 5713 5712 5711 5710 5710 5709 5709 5709 5709 5709 5709 5710 5710 5711 5711 5712 5712
5769 5765 5761 5757 5754 5751 5748 5746 5743 5741 5739 5738 5736 5734 5732 5730 5728 5726 5724 5722 5719 5717 5715 5714 5712 5711 5709 5708 5707 5706 5705 5705 5704 5704 5705 5705 5705 5706 5706 5707 5707 5708 5708
5764 5760 5756 5753 5749 5747 5744 5742 5739 5737 5735 5734 5732 5730 5728 5726 5724 5722 5720 5718 5716 5714 5712 5710 5709 5707 5706 5705 5704 5703 5702 5701 5701 5701 5701 5702 5702 5703 5703 5704 5704 5704 5704
5759 5756 5752 5749 5746 5744 5741 5739 5736 5734 5732 5730 5729 5727 5725 5723 5721 5719 5717 5715 5713 5711 5709 5708 5707 5705 5704 5702 5701 5700 5699 5699 5699 5699 5699 5699 5700 5700 5701 5701 5701 5702 5702
5755 5752 5749 5746 5744 5741 5739 5736 5734 5732 5730 5728 5726 5724 5722 5720 5718 5716 5715 5713 5711 5709 5708 5706 5705 5704 5703 5701 5700 5699 5698 5698 5698 5698 5698 5698 5698 5699 5699 5699 5700 5700 5700
5753 5750 5747 5744 5742 5739 5737 5735 5732 5730 5728 5726 5724 5722 5720 5718 5716 5715 5713 5711 5710 5708 5707 5706 5705 5704 5702 5701 5700 5699 5698 5698 5698 5698 5698 5698 5698 5698 5698 5699 5699 5699 5699
5751 5748 5745 5742 5740 5738 5736 5733 5731 5729 5727 5725 5723 5721 5719 5718 5716 5714 5713 5711 5710 5708 5707 5706 5705 5704 5703 5702 5701 5700 5700 5700 5699 5699 5699 5699 5699 5699 5699 5699 5699 5699 5699
5749 5746 5744 5742 5739 5737 5735 5733 5731 5729 5727 5725 5723 5721 5720 5718 5716 5715 5713 5712 5711 5710 5709 5708 5707 5706 5705 5704 5704 5703 5703 5702 5702 5701 5701 5701 5700 5701 5701 5701 5701 5701 5701
5747 5745 5743 5741 5739 5737 5735 5733 5731 5729 5727 5726 5724 5722 5720 5719 5717 5716 5715 5714 5713 5712 5711 5710 5709 5709 5708 5707 5706 5706 5706 5705 5705 5704 5704 5703 5703 5703 5703 5703 5703 5703 5702
5747 5745 5743 5741 5740 5738 5736 5734 5733 5731 5729 5727 5725 5724 5722 5721 5719 5718 5717 5716 5715 5714 5713 5712 5712 5711 5710 5710 5710 5709 5709 5708 5708 5707 5707 5706 5706 5706 5706 5706 5705 5705 5704